CZ-6A DEB, 66790

Orbit data source: Space-Track

CZ-6A DEB, 66790 is space debris in SSO originally from a launch on Fri, 11 Nov 2022 UTC launched from the Taiyaun Space Center, China (TSC). Debris objects in space refer to the collection of defunct objects orbiting the Earth. Examples of debris include non-operational satellites, rocket bodies, and fragments generated from explosions, collisions, or faulty payload assembly.

Loading next visibility...
Identifier
66790, 2022-151AJG
Orbit
SSO
Country
Flag of CNCN / PRC
Related business
Manufacturer
SAST
Mission
Spacecraft
Bus & Motor
Unknown
Mass
Unknown
Launch date (UTC)
2022-11-11 (4 years ago)
Launch vehicle
Unknown
Launch site
Taiyaun Space Center, China (TSC)
Object type
Payload
Rocket body
Debris
Shape & HBR
Unknown
Radar Cross Section
Medium (>0.1 m² and <1 m²)

Expand to show TLE details & history
Last TLE update: 21 hours ago

TLE from 21 hours ago
0 CZ-6A DEB
1 66790U 22151AJG 26206.44420420  .00001391  00000-0  70152-3 0  9997
2 66790  98.8190 212.2723 0040844 177.7289 182.4079 14.17510953172451
Epoch: 2026-07-25T10:39Z
TLE epoch observation values (Epoch: 2026-07-25T10:39:39.242Z)
Latitude
-0.00001°
Longitude
109.20239°
Altitude
866.127 km
Speed
7.404 km/s
True Right ascension
14h 09m 05s
True Declination
0° 00' 00"
Sunlit
Object was in daylight at epoch
Visualization orbit readout
Latitude
Unknown
Longitude
Unknown
Altitude
Unknown
Speed
Unknown
Apparent Right ascension
Unknown
Apparent Declination
Unknown
Sunlit
N/A
Visualization observer readout
Local Sidereal Time
21:09:43
Azimuth
Unknown
Elevation
Unknown
Doppler factor
Unknown
Orbital elements
Apogee altitude
860.395 km
Perigee altitude
801.505 km
Semi-major axis
7,209.087 km
Eccentricity
0.00408
Inclination
98.819°
RAAN
212.2723°
Arg. of periapsis
177.7289°
True anomaly
182.38834°
Mean anomaly
182.4079°
Eccentric anomaly
182.39811°
Mean motion
3.54587 °/min
Orbital period
101.53 mins
BSTAR
0.00070152
Loading maneuver chart data...
Computing Atmospheric mass density...

Documentation

Showing up to 5 results
|